When you browse on this site, cookies collect data to enhance your experience and personalize the content and advertising you see.
Visit our Privacy Policy to learn more. By continuing to use the site, you agree to this use of cookies and data.

Stündliche Wetter Ajova-Siti

Heute, 13 August, Donnerstag

Zeit Temperatur Niederschläge Wind Luftdruck Luftfeuchtigkeit
00:00 +20°C° 0 mm 3 m/S 743 mmHg 83%
01:00 +20°C° 0.1 mm 3 m/S 743 mmHg 85%
02:00 +20°C° 0.1 mm 2 m/S 743 mmHg 87%
03:00 +20°C° 0.1 mm 2 m/S 743 mmHg 90%
04:00 +20°C° 0 mm 2 m/S 743 mmHg 90%
05:00 +20°C° 0 mm 2 m/S 743 mmHg 91%
06:00 +20°C° 0 mm 2 m/S 743 mmHg 92%
07:00 +21°C° 0.2 mm 2 m/S 743 mmHg 90%
08:00 +24°C° 0.2 mm 2 m/S 743 mmHg 88%
09:00 +25°C° 0.2 mm 3 m/S 744 mmHg 86%
10:00 +27°C° 0 mm 3 m/S 743 mmHg 82%
11:00 +28°C° 0 mm 3 m/S 743 mmHg 78%
12:00 +29°C° 0 mm 3 m/S 743 mmHg 73%
13:00 +30°C° 0 mm 3 m/S 743 mmHg 72%
14:00 +30°C° 0 mm 2 m/S 742 mmHg 71%
15:00 +30°C° 0 mm 2 m/S 742 mmHg 70%
16:00 +29°C° 0 mm 2 m/S 742 mmHg 74%
17:00 +29°C° 0 mm 2 m/S 742 mmHg 77%
18:00 +28°C° 0 mm 2 m/S 742 mmHg 80%
19:00 +27°C° 0 mm 2 m/S 742 mmHg 84%
20:00 +25°C° 0 mm 3 m/S 742 mmHg 87%
21:00 +24°C° 0 mm 3 m/S 742 mmHg 90%
22:00 +22°C° 0 mm 3 m/S 742 mmHg 92%
23:00 +23°C° 0 mm 2 m/S 742 mmHg 94%

Morgen, 14 August, Freitag

Zeit Temperatur Niederschläge Wind Luftdruck Luftfeuchtigkeit
00:00 +21°C° 0 mm 2 m/S 742 mmHg 95%
01:00 +21°C° 0 mm 2 m/S 742 mmHg 96%
02:00 +20°C° 0 mm 2 m/S 742 mmHg 96%
03:00 +20°C° 0 mm 2 m/S 741 mmHg 96%
04:00 +20°C° 0 mm 2 m/S 741 mmHg 96%
05:00 +20°C° 0 mm 2 m/S 741 mmHg 96%
06:00 +19°C° 0 mm 3 m/S 741 mmHg 96%
07:00 +21°C° 0 mm 2 m/S 741 mmHg 91%
08:00 +24°C° 0 mm 2 m/S 741 mmHg 87%
09:00 +25°C° 0 mm 2 m/S 742 mmHg 83%
10:00 +26°C° 0 mm 2 m/S 742 mmHg 79%
11:00 +27°C° 0 mm 2 m/S 742 mmHg 76%
12:00 +28°C° 0 mm 2 m/S 741 mmHg 72%
13:00 +29°C° 0 mm 2 m/S 741 mmHg 70%
14:00 +29°C° 0 mm 2 m/S 741 mmHg 68%
15:00 +29°C° 0 mm 2 m/S 740 mmHg 66%
16:00 +29°C° 0 mm 2 m/S 740 mmHg 70%
17:00 +28°C° 0 mm 2 m/S 740 mmHg 74%
18:00 +27°C° 0 mm 2 m/S 739 mmHg 78%
19:00 +26°C° 0 mm 2 m/S 739 mmHg 82%
20:00 +24°C° 0 mm 1 m/S 739 mmHg 85%
21:00 +22°C° 0 mm 1 m/S 739 mmHg 89%
22:00 +22°C° 0 mm 1 m/S 740 mmHg 90%
23:00 +22°C° 0 mm 1 m/S 740 mmHg 91%

übermorgen, 15 August, Samstag

Zeit Temperatur Niederschläge Wind Luftdruck Luftfeuchtigkeit
00:00 +21°C° 0 mm 1 m/S 740 mmHg 92%
01:00 +21°C° 0 mm 1 m/S 740 mmHg 92%
02:00 +22°C° 0 mm 1 m/S 740 mmHg 92%
03:00 +21°C° 0 mm 2 m/S 739 mmHg 91%
04:00 +21°C° 0 mm 2 m/S 739 mmHg 93%
05:00 +21°C° 0 mm 2 m/S 740 mmHg 94%
06:00 +21°C° 0 mm 2 m/S 740 mmHg 96%
07:00 +21°C° 0 mm 3 m/S 740 mmHg 93%
08:00 +20°C° 0 mm 4 m/S 740 mmHg 91%
09:00 +20°C° 0 mm 5 m/S 741 mmHg 88%
10:00 +21°C° 0 mm 5 m/S 741 mmHg 84%
11:00 +23°C° 0 mm 4 m/S 741 mmHg 80%
12:00 +25°C° 0 mm 4 m/S 741 mmHg 76%
13:00 +25°C° 0 mm 4 m/S 741 mmHg 75%
14:00 +26°C° 0 mm 5 m/S 741 mmHg 73%
15:00 +26°C° 0 mm 5 m/S 741 mmHg 71%
16:00 +25°C° 0 mm 4 m/S 741 mmHg 75%
17:00 +23°C° 0 mm 4 m/S 741 mmHg 79%
18:00 +22°C° 0 mm 3 m/S 741 mmHg 83%
19:00 +21°C° 0 mm 3 m/S 741 mmHg 86%
20:00 +19°C° 0 mm 3 m/S 741 mmHg 89%
21:00 +18°C° 0 mm 3 m/S 741 mmHg 93%
22:00 +17°C° 0 mm 3 m/S 742 mmHg 93%
23:00 +17°C° 0 mm 3 m/S 742 mmHg 93%

16 August, Sonntag

Zeit Temperatur Niederschläge Wind Luftdruck Luftfeuchtigkeit
00:00 +16°C° 0 mm 3 m/S 742 mmHg 94%
01:00 +16°C° 0 mm 3 m/S 742 mmHg 94%
02:00 +14°C° 0 mm 3 m/S 742 mmHg 94%
03:00 +14°C° 0 mm 3 m/S 742 mmHg 94%
04:00 +14°C° 0 mm 3 m/S 742 mmHg 93%
05:00 +14°C° 0 mm 3 m/S 743 mmHg 93%
06:00 +14°C° 0 mm 3 m/S 743 mmHg 92%
07:00 +17°C° 0 mm 3 m/S 743 mmHg 87%
08:00 +19°C° 0 mm 3 m/S 744 mmHg 81%
09:00 +22°C° 0 mm 3 m/S 744 mmHg 75%
10:00 +24°C° 0 mm 3 m/S 744 mmHg 70%
11:00 +26°C° 0 mm 3 m/S 743 mmHg 65%
12:00 +27°C° 0 mm 3 m/S 743 mmHg 60%
13:00 +27°C° 0 mm 4 m/S 743 mmHg 61%
14:00 +28°C° 0 mm 4 m/S 743 mmHg 63%
15:00 +28°C° 0 mm 5 m/S 743 mmHg 64%
16:00 +27°C° 0 mm 5 m/S 743 mmHg 68%
17:00 +26°C° 0 mm 4 m/S 743 mmHg 72%
18:00 +25°C° 0 mm 4 m/S 743 mmHg 77%
19:00 +22°C° 0 mm 3 m/S 743 mmHg 79%
20:00 +20°C° 0 mm 3 m/S 743 mmHg 82%
21:00 +19°C° 0 mm 3 m/S 744 mmHg 84%
22:00 +18°C° 0 mm 3 m/S 744 mmHg 84%
23:00 +17°C° 0 mm 3 m/S 744 mmHg 84%

17 August, Montag

Zeit Temperatur Niederschläge Wind Luftdruck Luftfeuchtigkeit
00:00 +16°C° 0 mm 3 m/S 744 mmHg 83%
01:00 +16°C° 0 mm 3 m/S 744 mmHg 87%
02:00 +14°C° 0 mm 3 m/S 744 mmHg 90%
03:00 +14°C° 0 mm 3 m/S 744 mmHg 94%
04:00 +13°C° 0 mm 3 m/S 744 mmHg 91%
05:00 +13°C° 0 mm 3 m/S 745 mmHg 89%
06:00 +13°C° 0 mm 3 m/S 745 mmHg 87%
07:00 +16°C° 0 mm 3 m/S 745 mmHg 81%
08:00 +18°C° 0 mm 4 m/S 746 mmHg 74%
09:00 +20°C° 0 mm 4 m/S 746 mmHg 68%
10:00 +21°C° 0 mm 4 m/S 746 mmHg 65%
11:00 +22°C° 0 mm 4 m/S 746 mmHg 61%
12:00 +25°C° 0 mm 4 m/S 746 mmHg 57%
13:00 +25°C° 0 mm 4 m/S 745 mmHg 58%
14:00 +25°C° 0 mm 4 m/S 745 mmHg 59%
15:00 +25°C° 0 mm 4 m/S 745 mmHg 60%
16:00 +25°C° 0 mm 3 m/S 744 mmHg 66%
17:00 +24°C° 0 mm 2 m/S 744 mmHg 71%
18:00 +23°C° 0 mm 1 m/S 744 mmHg 77%
19:00 +22°C° 0 mm 1 m/S 744 mmHg 80%
20:00 +21°C° 0 mm 1 m/S 744 mmHg 82%
21:00 +20°C° 0 mm 1 m/S 744 mmHg 85%
22:00 +19°C° 0 mm 1 m/S 744 mmHg 86%
23:00 +18°C° 0 mm 1 m/S 744 mmHg 88%

18 August, Dienstag

Zeit Temperatur Niederschläge Wind Luftdruck Luftfeuchtigkeit
00:00 +18°C° 0 mm 1 m/S 744 mmHg 90%
01:00 +16°C° 0 mm 1 m/S 743 mmHg 91%
02:00 +16°C° 0 mm 2 m/S 743 mmHg 92%
03:00 +15°C° 0 mm 2 m/S 743 mmHg 93%
04:00 +15°C° 0 mm 2 m/S 743 mmHg 94%
05:00 +15°C° 0 mm 2 m/S 743 mmHg 94%
06:00 +14°C° 0 mm 2 m/S 744 mmHg 95%
07:00 +16°C° 0 mm 2 m/S 744 mmHg 88%
08:00 +18°C° 0 mm 2 m/S 744 mmHg 81%
09:00 +20°C° 0 mm 2 m/S 744 mmHg 74%
10:00 +21°C° 0 mm 2 m/S 744 mmHg 68%
11:00 +23°C° 0 mm 2 m/S 744 mmHg 62%
12:00 +24°C° 0 mm 2 m/S 744 mmHg 56%
13:00 +25°C° 0 mm 2 m/S 743 mmHg 56%
14:00 +25°C° 0 mm 2 m/S 743 mmHg 56%
15:00 +25°C° 0 mm 2 m/S 743 mmHg 56%
16:00 +25°C° 0 mm 2 m/S 742 mmHg 61%
17:00 +24°C° 0 mm 1 m/S 742 mmHg 66%
18:00 +23°C° 0 mm 1 m/S 742 mmHg 72%
19:00 +21°C° 0 mm 1 m/S 742 mmHg 75%
20:00 +20°C° 0 mm 1 m/S 742 mmHg 78%
21:00 +18°C° 0 mm 1 m/S 742 mmHg 81%
22:00 +17°C° 0 mm 2 m/S 742 mmHg 82%
23:00 +16°C° 0 mm 2 m/S 742 mmHg 84%
Mehr zeigen